CW7109 Weather Reports


time (UTC)temp
C
wind
direction
speed
KPH
gust
KPH
rain 1hr
cm
rain 24hr
cm
rain mn
cm
humidity
%
barometer
mb
20260507075132 11 63 0.0 3.2 0.03 0.66 0.08 80 1011.6
20260507074132 11 344 0.0 4.8 0.03 0.66 0.08 80 1011.4
20260507072132 12 77 3.2 6.4 0.00 0.64 0.05 79 1011.8
20260507071132 12 276 1.6 6.4 0.00 0.64 0.05 79 1012.1
20260507070132 12 90 1.6 11.3 0.00 0.64 0.05 80 1011.8
20260507065132 12 329 0.0 6.4 0.00 0.64 0.05 80 1011.9
20260507064132 12 273 1.6 4.8 0.00 0.64 0.05 80 1011.8
20260507061131 13 213 0.0 3.2 0.03 0.64 0.05 79 1011.9
20260507060131 13 109 0.0 1.6 0.05 0.64 0.05 79 1011.8
20260507055131 13 273 0.0 1.6 0.10 0.64 0.05 79 1012.0
20260507054131 13 273 0.0 3.2 0.25 0.64 0.05 79 1011.8
20260507052130 14 344 1.6 1.6 0.23 0.61 0.03 79 1012.0
20260507051130 14 277 0.0 3.2 0.23 0.61 0.03 78 1011.8
20260507050200 15 201 1.6 4.8 0.20 0.58 0.00 77 1012.3
20260507045130 15 290 1.6 4.8 0.15 0.53 0.53 77 1012.2
20260507043130 16 277 0.0 6.4 0.00 0.38 0.38 73 1012.0
20260507042130 16 145 0.0 4.8 0.00 0.38 0.38 72 1011.6
20260507041130 16 338 0.0 6.4 0.00 0.38 0.38 71 1011.7
20260507035130 17 306 1.6 3.2 0.00 0.38 0.38 69 1011.1
20260507034130 17 107 0.0 6.4 0.00 0.38 0.38 69 1011.2
20260507033130 17 333 0.0 6.4 0.00 0.38 0.38 69 1011.4
20260507032130 17 311 0.0 9.7 0.00 0.38 0.38 69 1011.1
20260507031130 17 59 4.8 4.8 0.00 0.38 0.38 73 1010.9
20260507030130 18 101 0.0 4.8 0.00 0.38 0.38 73 1010.5
20260507024159 18 53 0.0 3.2 0.00 0.38 0.38 73 1010.6
20260507022129 18 296 0.0 4.8 0.00 0.38 0.38 72 1010.5
20260507021129 18 243 0.0 4.8 0.00 0.38 0.38 71 1010.9
20260507020159 18 235 0.0 4.8 0.00 0.38 0.38 73 1010.4
20260507014159 19 315 0.0 4.8 0.00 0.38 0.38 74 1010.9
20260507013129 20 129 0.0 4.8 0.00 0.38 0.38 75 1010.9
20260507012158 20 189 1.6 8.0 0.00 0.38 0.38 76 1010.5
20260507010158 20 239 0.0 1.6 0.00 0.38 0.38 74 1010.2
20260507004158 20 213 0.0 3.2 0.00 0.38 0.38 74 1010.2
20260507003158 20 271 0.0 4.8 0.00 0.38 0.38 74 1009.9
20260507002158 20 221 0.0 3.2 0.00 0.38 0.38 74 1009.8
20260507001158 20 195 0.0 1.6 0.00 0.38 0.38 73 1009.9
20260507000158 20 51 0.0 3.2 0.00 0.38 0.38 73 1009.8
20260506235158 20 311 0.0 1.6 0.00 0.38 0.38 73 1009.5
20260506234157 20 271 0.0 0.0 0.00 0.38 0.38 73 1009.6
20260506233158 20 271 0.0 1.6 0.00 0.38 0.38 73 1009.5
20260506232157 20 271 0.0 0.0 0.00 0.38 0.38 72 1009.3
20260506231157 20 266 0.0 1.6 0.00 0.38 0.38 72 1009.3
20260506230157 20 336 0.0 1.6 0.00 0.38 0.38 71 1009.3
20260506224157 21 242 0.0 3.2 0.00 0.38 0.38 71 1009.3
20260506223157 21 65 0.0 3.2 0.00 0.38 0.38 71 1009.4
20260506222157 21 205 0.0 3.2 0.00 0.38 0.38 71 1009.3
20260506221157 21 275 0.0 6.4 0.00 0.38 0.38 70 1009.3
20260506220157 21 258 0.0 3.2 0.00 0.38 0.38 71 1009.3
20260506215156 21 258 0.0 9.7 0.00 0.38 0.38 70 1009.2
20260506214156 21 236 6.4 6.4 0.00 0.38 0.38 70 1009.1
20260506213156 21 281 3.2 8.0 0.00 0.38 0.38 70 1009.0
20260506212156 21 259 0.0 4.8 0.00 0.38 0.38 71 1009.0
20260506211156 21 273 0.0 4.8 0.00 0.38 0.38 70 1008.9
20260506210156 21 229 1.6 8.0 0.00 0.38 0.38 70 1008.8
20260506203156 21 252 1.6 4.8 0.00 0.38 0.38 69 1008.9
20260506201156 21 242 0.0 6.4 0.00 0.38 0.38 69 1008.8
20260506200155 21 244 1.6 11.3 0.00 0.38 0.38 70 1008.8
20260506195155 20 266 1.6 11.3 0.00 0.38 0.38 71 1009.0
20260506194155 20 239 4.8 11.3 0.00 0.38 0.38 71 1009.0
20260506193155 20 232 0.0 6.4 0.00 0.38 0.38 72 1009.0
20260506192155 20 220 0.0 9.7 0.00 0.38 0.38 73 1009.1
20260506190155 19 272 3.2 14.5 0.00 0.38 0.38 75 1009.4
20260506185155 19 257 0.0 11.3 0.00 0.38 0.38 74 1009.6
20260506184155 19 290 3.2 11.3 0.00 0.38 0.38 75 1009.6
20260506182154 18 267 6.4 12.9 0.00 0.38 0.38 76 1009.5
20260506181154 18 251 1.6 12.9 0.00 0.38 0.38 77 1009.7
20260506180154 18 223 0.0 11.3 0.00 0.38 0.38 78 1009.8
20260506175154 18 290 0.0 12.9 0.00 0.38 0.38 79 1009.8
20260506174154 17 261 6.4 14.5 0.00 0.38 0.38 80 1009.8
20260506173154 17 288 6.4 14.5 0.00 0.38 0.38 80 1009.9
20260506172154 17 276 0.0 14.5 0.00 0.38 0.38 81 1009.9
20260506171154 17 271 3.2 11.3 0.00 0.38 0.38 81 1009.9
20260506170154 17 241 1.6 12.9 0.00 0.38 0.38 81 1009.9
20260506165153 17 273 6.4 12.9 0.00 0.38 0.38 81 1010.1
20260506164153 16 284 3.2 14.5 0.00 0.38 0.38 81 1010.2
20260506163153 16 302 1.6 14.5 0.00 0.38 0.38 81 1010.0
20260506162153 16 260 0.0 9.7 0.00 0.38 0.38 81 1010.2
20260506161153 16 21 1.6 11.3 0.00 0.38 0.38 81 1010.2
20260506154153 16 207 1.6 14.5 0.13 0.38 0.38 81 1010.3
20260506153153 16 183 1.6 4.8 0.15 0.38 0.38 81 1010.5
20260506151153 16 198 1.6 12.9 0.20 0.38 0.38 81 1010.9
20260506150152 16 231 1.6 14.5 0.18 0.36 0.36 81 1010.9
20260506145152 16 250 3.2 11.3 0.20 0.33 0.33 80 1011.0
20260506144152 16 282 0.0 11.3 0.15 0.25 0.25 80 1011.0
20260506143152 16 240 1.6 6.4 0.18 0.23 0.23 80 1011.0
20260506142152 17 249 0.0 4.8 0.20 0.20 0.20 80 1010.8
20260506141152 17 223 0.0 8.0 0.18 0.18 0.18 79 1011.0
20260506140152 17 258 3.2 6.4 0.18 0.18 0.18 79 1011.1
20260506135152 17 285 0.0 6.4 0.13 0.13 0.13 78 1011.5
20260506133151 17 242 1.6 4.8 0.05 0.05 0.05 75 1011.3
20260506132151 18 226 0.0 11.3 0.00 0.00 0.00 74 1011.2
20260506131151 18 226 0.0 4.8 0.00 0.00 0.00 73 1011.2
20260506130151 18 252 0.0 6.4 0.00 0.00 0.00 72 1010.8
20260506125151 18 257 0.0 6.4 0.00 0.00 0.00 70 1011.0
20260506124151 18 273 0.0 6.4 0.00 0.00 0.00 70 1011.0
20260506123151 18 311 0.0 4.8 0.00 0.00 0.00 69 1011.2
20260506121150 18 248 4.8 14.5 0.00 0.00 0.00 67 1011.4
20260506120150 18 270 3.2 9.7 0.00 0.00 0.00 67 1011.5
20260506115150 18 261 1.6 9.7 0.00 0.00 0.00 66 1011.3
20260506114150 19 269 4.8 11.3 0.00 0.00 0.00 65 1011.0
20260506113150 18 269 3.2 6.4 0.00 0.00 0.00 66 1011.0
20260506112150 18 259 4.8 11.3 0.00 0.00 0.00 66 1010.8
20260506110150 18 271 3.2 12.9 0.00 0.00 0.00 65 1010.7
20260506105149 18 275 3.2 16.1 0.00 0.00 0.00 65 1010.6
20260506104149 18 263 0.0 9.7 0.00 0.00 0.00 65 1010.4
20260506102149 18 178 0.0 4.8 0.00 0.00 0.00 65 1010.4
20260506100149 18 261 4.8 11.3 0.00 0.00 0.00 64 1010.3
20260506095149 19 173 1.6 4.8 0.00 0.00 0.00 64 1010.5
20260506094149 19 283 0.0 9.7 0.00 0.00 0.00 63 1010.5
20260506093149 19 250 3.2 11.3 0.00 0.00 0.00 63 1010.5
20260506091149 20 280 0.0 11.3 0.00 0.00 0.00 61 1010.5
20260506090148 20 245 1.6 11.3 0.00 0.00 0.00 61 1010.7
20260506085149 20 261 0.0 8.0 0.00 0.00 0.00 60 1010.8
20260506084148 20 300 0.0 9.7 0.00 0.00 0.00 59 1010.8
20260506083148 20 259 4.8 6.4 0.00 0.00 0.00 58 1010.7
20260506082148 20 259 1.6 4.8 0.00 0.00 0.00 58 1010.7
20260506080148 20 355 0.0 8.0 0.00 0.00 0.00 56 1010.6